Dewpoint
55 58 59 60 61 63 65 67 67 69 70 68 66 65 64 67 65 66 71 72 71 72 74 68 71 72 70 72 71 69 69 64 67 65 61 62 63 63 64 65 65 65 66
53 57 59 59 60 63 65 67 68 70 69 67 66 66 67 68 64 66 71 72 71 71 71 72 70 72 68 73 73 73 66 65 67 64 63 60 60 61 62 65 66 66 66
52 56 58 59 60 62 65 67 68 70 70 69 68 69 69 70 65 67 70 69 71 71 72 72 72 73 72 68 71 70 70 64 65 69 65 60 56 59 60 65 64 68 67
54 55 57 59 59 62 65 67 69 69 69 70 68 70 67 63 68 66 69 68 71 71 70 71 73 74 69 72 70 69 71 71 64 63 64 69 69 62 59 59 62 63 65
54 54 56 58 59 62 63 65 69 69 69 70 70 68 67 62 64 64 69 72 72 72 69 71 72 73 70 71 72 71 72 69 67 65 62 64 62 66 66 60 60 60 59
53 55 56 58 59 61 63 64 69 70 69 70 70 70 69 67 65 66 66 66 66 68 71 71 72 73 72 72 71 73 73 72 70 67 66 62 60 61 60 60 60 59 60
53 55 56 57 59 61 63 64 68 70 68 69 69 69 69 70 69 69 65 67 63 63 68 73 73 70 73 72 72 73 73 72 70 71 65 63 63 62 62 61 59 58 59
52 54 56 57 60 61 63 64 67 69 69 67 69 70 70 66 66 67 64 62 64 64 68 71 72 73 72 73 73 71 70 70 70 72 73 66 63 63 63 64 62 59 57
53 55 57 57 61 62 64 64 66 69 68 67 68 69 69 69 66 68 67 64 70 67 70 71 72 72 72 73 74 75 70 72 71 71 72 70 66 63 64 65 65 62 59
55 56 57 58 60 62 63 64 66 68 68 66 68 68 68 70 68 68 70 69 68 71 71 72 72 72 72 73 74 71 71 73 70 68 71 72 68 67 66 66 67 66 67
55 58 59 59 61 62 63 64 65 67 68 68 68 69 69 69 70 69 70 71 71 71 73 73 72 72 72 73 74 75 73 72 74 72 71 72 74 68 66 66 66 67 68
54 59 60 61 61 62 62 63 65 65 67 68 70 69 70 70 69 70 70 71 72 71 72 72 72 72 72 72 73 72 70 70 71 72 74 71 68 74 72 68 71 69 69
55 59 60 62 62 62 63 63 65 66 66 69 68 69 69 70 70 70 71 71 72 72 71 72 73 73 72 72 73 73 72 71 70 70 71 71 71 74 69 70 68 68 69
57 60 60 62 64 64 66 66 65 66 68 68 68 70 70 70 70 71 73 73 73 73 73 72 73 72 73 73 73 73 72 72 70 71 72 72 72 73 73 74 72 71 69
57 60 60 63 66 66 67 68 66 68 68 69 69 70 72 71 72 73 73 74 74 73 74 73 73 73 71 69 73 72 71 71 71 71 71 72 72 70 71 75 75 75 71
58 59 61 63 65 66 68 68 68 69 70 70 70 71 73 73 73 73 74 74 75 75 75 75 74 73 71 65 66 68 69 70 70 70 70 71 70 70 68 68 68 70 75
58 61 61 62 64 65 68 68 69 70 71 72 73 73 73 73 74 73 73 73 76 76 75 74 73 72 71 58 57 57 66 68 70 71 70 69 66 68 69 68 67 67 66
58 63 63 65 66 66 66 68 69 71 71 72 72 72 73 73 74 74 73 74 73 73 73 71 70 68 66 55 54 55 59 60 63 66 68 69 70 71 70 69 69 70 71
60 64 65 67 68 68 68 69 70 71 71 72 72 73 72 73 74 73 72 70 69 67 66 64 62 62 61 54 54 55 58 58 60 60 61 62 65 65 65 70 70 70 73
63 64 65 67 68 69 69 70 70 71 71 71 72 74 74 72 71 70 68 65 64 61 57 59 61 56 60 55 54 55 54 56 55 59 60 58 59 57 57 64 71 70 71
62 63 64 66 70 70 69 68 66 62 61 61 62 65 66 65 66 65 64 62 60 61 61 61 62 61 59 59 54 54 55 55 55 55 55 56 56 55 54 55 62 69 69
60 60 62 65 67 68 67 65 63 62 62 61 61 60 61 60 62 63 63 62 62 61 61 62 58 56 59 55 54 53 53 54 55 55 56 57 54 53 53 55 58 57 61
60 61 65 67 67 68 68 66 65 65 63 63 62 61 59 60 62 61 61 58 60 55 56 55 55 55 55 56 54 53 53 54 54 55 54 53 52 52 53 55 56 57 63
60 63 66 67 66 66 66 66 66 64 63 61 56 56 57 59 60 55 54 53 53 53 54 54 54 54 54 54 54 54 55 55 56 55 55 55 54 54 55 56 58 61 64
61 65 65 66 66 66 64 64 64 64 63 60 57 56 57 58 57 57 55 55 56 53 53 53 54 53 53 53 48 47 51 52 53 52 56 57 58 56 56 58 60 65 65
63 66 65 66 65 65 63 63 63 62 59 55 54 53 54 55 54 54 54 51 50 49 47 45 48 53 50 46 45 44 45 46 48 56 58 59 61 59 60 61 62 61 60
Lifted_Index
-0 -0 -0 -0 -0 -0 -0 -0 -1 -1 -1 -1 -0 -0 -0 0 -0 -1 -3 -3 -4 -4 -4 -4 -4 -5 -5 -5 -5 -4 -4 -3 -4 -3 -3 -2 -2 -3 -3 -4 -4 -4 -4
-0 -0 -0 -0 -0 -0 -0 -0 -1 -1 -1 -1 -0 -0 -0 0 -0 -1 -2 -3 -4 -4 -4 -4 -4 -4 -4 -5 -5 -4 -4 -3 -4 -4 -3 -2 -2 -2 -3 -3 -4 -4 -4
-1 -1 -0 -0 -1 -1 -1 -1 -1 -1 -1 -0 -0 0 0 0 0 -1 -2 -3 -4 -4 -4 -4 -4 -4 -4 -4 -4 -4 -4 -3 -3 -3 -3 -3 -2 -2 -2 -3 -3 -4 -4
-1 -1 -1 -1 -1 -1 -1 -1 -1 -1 -1 -1 -0 0 0 1 0 -1 -2 -3 -4 -4 -4 -4 -4 -4 -4 -4 -4 -4 -4 -3 -3 -3 -3 -3 -3 -3 -2 -2 -2 -3 -3
-2 -1 -1 -1 -1 -1 -2 -2 -2 -1 -1 -1 -1 -1 -0 0 -0 -1 -2 -3 -4 -4 -4 -3 -4 -4 -4 -4 -4 -4 -4 -4 -3 -3 -2 -2 -2 -3 -3 -2 -2 -2 -2
-2 -2 -1 -1 -1 -1 -2 -2 -2 -2 -1 -1 -1 -1 -1 -1 -2 -2 -3 -3 -3 -3 -3 -4 -4 -4 -4 -4 -4 -4 -4 -4 -3 -3 -2 -2 -2 -2 -2 -2 -2 -1 -1
-2 -2 -2 -2 -1 -2 -2 -2 -2 -2 -2 -2 -2 -2 -2 -2 -2 -2 -2 -2 -3 -3 -3 -4 -4 -4 -4 -4 -4 -4 -4 -4 -4 -4 -3 -2 -2 -2 -2 -2 -2 -2 -1
-2 -2 -2 -2 -2 -2 -2 -2 -3 -3 -2 -2 -2 -2 -2 -2 -2 -2 -2 -2 -2 -3 -3 -4 -5 -5 -5 -5 -5 -4 -4 -4 -4 -4 -4 -3 -2 -2 -2 -3 -2 -2 -1
-3 -3 -2 -2 -2 -2 -2 -2 -3 -3 -3 -3 -2 -2 -2 -2 -2 -2 -2 -2 -3 -3 -4 -5 -5 -5 -5 -5 -5 -5 -4 -5 -5 -4 -4 -4 -3 -3 -3 -3 -3 -3 -2
-3 -3 -3 -3 -3 -3 -3 -3 -3 -4 -4 -3 -3 -3 -3 -3 -3 -2 -3 -3 -3 -4 -4 -5 -5 -5 -5 -5 -5 -5 -5 -5 -5 -5 -4 -4 -4 -4 -3 -3 -4 -3 -3
-3 -3 -3 -3 -3 -3 -3 -3 -3 -4 -4 -4 -4 -4 -4 -4 -3 -3 -3 -3 -3 -4 -4 -5 -5 -5 -5 -5 -5 -5 -5 -5 -5 -5 -5 -5 -4 -4 -4 -4 -4 -4 -4
-3 -3 -4 -3 -3 -3 -3 -3 -4 -4 -4 -4 -4 -4 -4 -4 -4 -4 -4 -4 -4 -4 -4 -5 -5 -5 -5 -5 -5 -5 -5 -4 -5 -5 -5 -5 -5 -4 -4 -4 -4 -4 -4
-4 -4 -4 -4 -4 -4 -4 -4 -4 -4 -4 -4 -4 -4 -5 -5 -4 -4 -4 -5 -5 -5 -5 -5 -5 -5 -5 -5 -5 -5 -5 -5 -4 -4 -5 -5 -5 -5 -4 -4 -4 -4 -4
-4 -5 -5 -5 -5 -4 -4 -4 -4 -5 -5 -4 -5 -5 -5 -5 -5 -5 -5 -5 -5 -5 -5 -5 -5 -5 -5 -5 -5 -5 -5 -5 -4 -4 -4 -5 -5 -5 -5 -5 -4 -4 -4
-5 -5 -5 -5 -5 -5 -5 -5 -5 -5 -5 -5 -5 -5 -5 -5 -5 -5 -6 -6 -6 -6 -6 -6 -6 -6 -5 -5 -5 -5 -4 -4 -4 -4 -4 -4 -4 -5 -5 -5 -5 -4 -4
-6 -6 -6 -6 -6 -6 -6 -6 -6 -6 -6 -6 -6 -6 -6 -6 -6 -6 -6 -6 -6 -7 -7 -6 -6 -6 -5 -4 -4 -3 -3 -3 -3 -3 -4 -4 -4 -4 -4 -4 -4 -4 -4
-6 -7 -7 -7 -7 -6 -6 -6 -6 -6 -6 -7 -7 -6 -6 -7 -7 -7 -6 -6 -7 -7 -6 -6 -5 -5 -4 -3 -3 -2 -1 -1 -1 -1 -2 -2 -3 -3 -3 -4 -3 -3 -3
-7 -7 -7 -7 -7 -7 -7 -7 -7 -7 -7 -7 -7 -7 -7 -7 -8 -7 -6 -6 -5 -5 -5 -4 -4 -3 -2 -1 -0 1 2 3 3 2 1 0 -1 -2 -3 -3 -3 -3 -3
-7 -7 -8 -8 -8 -7 -7 -7 -8 -8 -8 -8 -7 -7 -8 -7 -7 -6 -5 -4 -4 -3 -3 -2 -1 -1 1 2 4 6 7 7 7 6 5 4 3 2 0 -1 -2 -3 -4
-7 -7 -8 -8 -8 -8 -7 -7 -8 -8 -8 -7 -7 -7 -6 -6 -5 -5 -4 -3 -2 -2 -1 -0 1 3 4 6 8 9 10 9 8 8 8 8 7 6 5 3 0 -2 -3
-6 -6 -7 -7 -7 -7 -7 -6 -6 -6 -6 -5 -5 -4 -4 -3 -3 -3 -2 -2 -1 -0 1 2 4 5 6 8 9 10 10 10 9 9 8 8 8 8 8 7 4 1 -0
-5 -5 -6 -6 -6 -6 -5 -5 -5 -4 -4 -3 -3 -2 -2 -2 -1 -1 -1 -0 1 2 3 5 6 7 7 8 9 9 9 9 9 8 8 7 8 8 9 8 7 4 3
-5 -5 -6 -6 -6 -5 -4 -4 -3 -3 -2 -2 -1 -1 -0 -0 -0 1 2 2 3 4 5 6 7 7 8 8 8 8 8 8 7 7 6 6 7 7 8 8 8 6 5
-5 -5 -6 -6 -5 -4 -4 -2 -1 -1 -0 -0 1 1 1 1 2 3 4 5 5 6 6 7 7 7 8 7 7 7 7 7 6 6 6 6 6 7 7 7 8 6 5
-5 -5 -5 -5 -5 -4 -3 -2 -1 0 0 1 1 2 2 3 4 5 6 6 7 7 7 8 8 8 8 7 7 7 6 6 6 5 5 5 6 6 6 6 7 5 4
-6 -5 -5 -5 -4 -3 -2 -1 -1 -0 0 0 1 1 2 3 4 5 6 7 8 8 8 8 8 8 8 8 7 7 6 6 6 5 5 5 6 6 6 6 6 5 3